Brookings, OR

6:44 PM PDT on April 21, 2018 (GMT -0700)
Brookings State

Weather History for KBOK - September, 2013

Change the Weather History Date:

Friday, September 27, 2013

  Actual Average Record
Temperature  
Mean Temperature 54 °F -  
Max Temperature 63 °F 68 °F 92 °F (1974)
Min Temperature 45 °F 51 °F 43 °F (1938)
Degree Days  
Heating Degree Days 11    
Growing Degree Days 4 (Base 50)    
Moisture  
Dew Point 48 °F    
Average Humidity 78    
Maximum Humidity 97    
Minimum Humidity 62    
Precipitation  
Precipitation 0.00 in - - ()
Sea Level Pressure  
Sea Level Pressure 30.17 in    
Wind  
Wind Speed 3 mph (SSE)    
Max Wind Speed 9 mph    
Max Gust Speed -    
Visibility 10 miles    
Events      
Averages and records for this station are not official NWS values.
T = Trace of Precipitation, MM = Missing Value Source: NWS Daily Summary

Daily Weather History Graph

Daily Weather History Graph

Search for Another Location

Airport or City:

Astronomy

Sep. 27, 2013 Rise Set
Actual Time 7:10 AM PDT 7:05 PM PDT
Civil Twilight 6:42 AM PDT 7:32 PM PDT
Nautical Twilight 6:09 AM PDT 8:05 PM PDT
Astronomical Twilight 5:36 AM PDT 8:38 PM PDT
Moon 12:05 AM PDT (9/27) 2:52 PM PDT (9/27)
Length of Visible Light 12h 50m
Length of Day
11h 54m
Last Quarter, 44% of the Moon is Illuminated
Sep 27
Last Quarter
Oct 4
New
Oct 11
First Quarter
Oct 18
Full
Oct 26
Last Quarter

Hourly Weather History & Observations

Time (PDT) Temp. Dew Point Humidity Pressure Visibility Wind Dir Wind Speed Gust Speed Precip Events Conditions
12:56 AM 48.9 °F 45.9 °F 89% 30.18 in 10.0 mi Calm Calm - N/A   Clear
1:56 AM 48.9 °F 45.9 °F 89% 30.19 in 10.0 mi NNE 3.5 mph - N/A   Clear
2:56 AM 48.9 °F 45.0 °F 86% 30.18 in 10.0 mi East 5.8 mph - N/A   Clear
3:56 AM 48.9 °F 45.9 °F 89% 30.18 in 10.0 mi NE 4.6 mph - N/A   Clear
4:56 AM 46.9 °F 45.0 °F 93% 30.17 in 10.0 mi Calm Calm - N/A   Clear
5:56 AM 47.8 °F 45.0 °F 90% 30.18 in 10.0 mi Variable 3.5 mph - N/A   Clear
6:56 AM 45.9 °F 45.0 °F 97% 30.18 in 10.0 mi Calm Calm - N/A   Clear
7:56 AM 47.8 °F 45.9 °F 93% 30.18 in 10.0 mi Calm Calm - N/A   Clear
8:56 AM 52.0 °F 46.9 °F 83% 30.18 in 10.0 mi Calm Calm - N/A   Clear
9:56 AM 56.8 °F 45.9 °F 67% 30.20 in 10.0 mi West 4.6 mph - N/A   Clear
10:56 AM 59.0 °F 47.8 °F 66% 30.21 in 10.0 mi Variable 3.5 mph - N/A   Clear
11:56 AM 59.9 °F 47.8 °F 64% 30.21 in 10.0 mi SSW 3.5 mph - N/A   Partly Cloudy
12:56 PM 61.0 °F 47.8 °F 62% 30.20 in 10.0 mi SSW 3.5 mph - N/A   Clear
1:56 PM 61.0 °F 48.9 °F 64% 30.19 in 10.0 mi West 5.8 mph - N/A   Clear
2:56 PM 61.0 °F 47.8 °F 62% 30.17 in 10.0 mi NW 9.2 mph - N/A   Mostly Cloudy
3:56 PM 61.0 °F 47.8 °F 62% 30.17 in 10.0 mi NW 8.1 mph - N/A   Mostly Cloudy
4:56 PM 63.0 °F 50.0 °F 63% 30.17 in 10.0 mi Variable 4.6 mph - N/A   Mostly Cloudy
5:56 PM 61.9 °F 50.0 °F 65% 30.16 in 10.0 mi Calm Calm - N/A   Mostly Cloudy
6:56 PM 59.0 °F 50.0 °F 72% 30.16 in 10.0 mi Calm Calm - N/A   Mostly Cloudy
7:56 PM 55.9 °F 52.0 °F 87% 30.15 in 10.0 mi SSE 3.5 mph - N/A   Scattered Clouds
8:56 PM 57.9 °F 52.9 °F 83% 30.15 in 10.0 mi Calm Calm - N/A   Overcast
9:56 PM 55.9 °F 52.0 °F 87% 30.14 in 10.0 mi SE 3.5 mph - N/A   Mostly Cloudy
10:56 PM 55.9 °F 50.9 °F 83% 30.12 in 10.0 mi SE 3.5 mph - N/A   Partly Cloudy
11:56 PM 55.9 °F 50.9 °F 83% 30.11 in 10.0 mi East 3.5 mph - N/A   Mostly Cloudy